Flag for Germany Weather past 2 weeks in Bretten, Baden-Württemberg, Germany

Now
81 °F

Clear.


Feels Like: 81 °F
Forecast: 59 / 77 °F
Wind: 6 mph from West

Location: Baden Wurttemberg - Neuostheim

Current Time: Sep 1, 2015 at 12:44:57 AM

Latest Report: Aug 31, 2015 at 11:20 PM


Visibility: 10 mi

Pressure: 29.83 "Hg

Humidity: 45%

Dew point: 57 °F

Location of BrettenLocation

Historic Weather in Bretten — Graph

°F

Bretten temperature yesterday

Maximum temperature yesterday: 93 °F (at 4:20 PM)
Minimum temperature yesterday: 70 °F (at 6:20 AM)
Average temperature yesterday: 84 °F

Past Weeks' High & Low Weather Summary

 TemperatureHumidityPressure
High93 °F (Aug 30, 4:50 PM)100% (Aug 17, 9:20 PM)30.27 "Hg (Aug 17, 9:20 PM)
Low54 °F (Aug 19, 5:20 AM)21% (Aug 31, 4:20 PM)29.68 "Hg (Aug 23, 4:50 PM)
Average71 °F60%30.01 "Hg
* Reported Aug 17 5:50 AM — Aug 31 10:50 PM, Bretten, Weather by CustomWeather, © 2015

Note: Actual official high and low records may vary slightly from our data, if they occured in-between our weather recording intervals... More about our weather records

Advertising

Bretten weather history for previous 24 hours

 ConditionsComfort  
Time TempWeatherWind HumidityBarometerVisibility
10:50 PM
Mon, Aug 31
81 °FClear.6 mph42%29.83 "Hg10 mi
10:20 PM82 °FPassing clouds.5 mph40%29.83 "HgN/A
9:20 PM81 °FClear.2 mph42%29.83 "Hg10 mi
8:50 PM84 °FSunny.5 mph35%29.83 "Hg10 mi
7:50 PM90 °FPassing clouds.6 mph27%29.80 "HgN/A
7:20 PM91 °FPassing clouds.8 mph26%29.80 "HgN/A
6:50 PM91 °FPassing clouds.10 mph24%29.83 "HgN/A
6:20 PM91 °FPassing clouds.12 mph24%29.83 "HgN/A
5:50 PM93 °FPassing clouds.12 mph23%29.83 "HgN/A
5:20 PM93 °FPassing clouds.10 mph21%29.83 "HgN/A
4:50 PM93 °FPassing clouds.14 mph21%29.83 "HgN/A
4:20 PM93 °FPassing clouds.9 mph21%29.86 "HgN/A
3:50 PM91 °FPassing clouds.10 mph24%29.86 "HgN/A
3:20 PM91 °FPassing clouds.12 mph24%29.86 "HgN/A
2:50 PM91 °FPassing clouds.9 mph24%29.89 "HgN/A
2:20 PM91 °FPassing clouds.8 mph26%29.89 "HgN/A
1:50 PM90 °FPassing clouds.8 mph26%29.89 "HgN/A
1:20 PM90 °FPassing clouds.8 mph26%29.92 "HgN/A
12:50 PM88 °FPleasantly warm.10 mph27%29.92 "HgN/A
12:20 PM88 °FPleasantly warm.9 mph29%29.92 "HgN/A
11:50 AM86 °FPassing clouds.7 mph40%29.95 "HgN/A
11:20 AM84 °FPassing clouds.8 mph40%29.95 "HgN/A
10:50 AM82 °FPassing clouds.7 mph42%29.95 "HgN/A
10:20 AM79 °FPassing clouds.7 mph48%29.95 "HgN/A
9:50 AM77 °FPassing clouds.7 mph57%29.95 "HgN/A
9:20 AM75 °FSunny.6 mph61%29.98 "Hg10 mi
8:50 AM73 °FPassing clouds.5 mph69%29.95 "HgN/A
8:20 AM72 °FPassing clouds.6 mph73%29.95 "HgN/A
7:50 AM72 °FPassing clouds.5 mph78%29.98 "HgN/A
7:20 AM70 °FClear.3 mph78%29.98 "Hg10 mi
6:50 AM70 °FClear.5 mph78%29.98 "Hg10 mi
6:20 AM70 °FClear.3 mph83%29.98 "Hg10 mi
Weather by CustomWeather, © 2015

See weather overviewHow to use our weather pages